Powrót do katalogu

STARLINK-4008

AktywnyŁącznośćVLEO
NORAD 52622·PAYLOAD·🇺🇸 United States

Wystrzelony May 14, 2022 z Cape Canaveral Space Force Station

Loading…

Następne Przeloty (najbliższe 24 godziny)

TLE

ŚwieżeSource: CelesTrak SupGP

Epoka: Sep 14, 2026, 22:17 UTC

1 52622C 22052AA  26257.92895833 -.00023999  00000+0 -68667-3 0  2573
2 52622  53.1564 142.4697 0001334  88.8251 302.4734 15.35408316    19

Śledź STARLINK-4008 w czasie rzeczywistym z AllMySat

Download on the App Store